STARLINK-34586 (64950 NORAD) Tracking and Keplerian Element Data

This shows tracking and keplerian element data for the satellite.

Feedback or suggestion? Click here.




ElementValue
Catalog64950
NameSTARLINK-34586
Epoch Orbit2337
Epoch Day354.07056477
Epoch Year2025
RAAN215.5798
Inclination97.6042
Eccentricity0.0001751
Argument of Perigee75.7072
Mean Anonmoly284.4349
Mean Motion15.0565559
Decay Rate0.00014821
L11 64950U 25158U 25354.07056477 .00014821 00000+0 10291-2 0 9990
L22 64950 97.6042 215.5798 0001751 75.7072 284.4349 15.05655590 23373



Live tracking and technical data element details for STARLINK-34586 (NORAD 64950). STARLINK-34586 can be tracked NOW for your location showing map with azimuth and elevation plus other details from your city location.







IsCatalogInMostPopularTable: catalog: 64950, numindb: 7
Update: records affected: 1



GetName: 64950 STARLINK-34586

Hit Count: updated at: Sat, 11 Apr 2026 21:06:34 GMT